Free Severe Weather Alerts by Email and Text Message   

 
Follow iAlert.com on twitter @ialertcom
Search For Active Alerts in Your Area  
  Hi Guest:  [ Sign-up / Services ] [ Login ]

Current weather by "City, St" or "zip code"  

 

Advertise Here

Hazardous Weather Conditions

No active alerts for PHILADELPHIA, PENNSYLVANIA

Current Conditions: PHILADELPHIA, PENNSYLVANIA

Partly Cloudy


64.0 F

Last Updated on Apr 28 2017, 1:54 am EDT
Humidity: 87%
Wind Speed: N 0.0 mph
Barometer 29.87 in
Dewpoint: 60.1 F
Visibility: 10.00 mi
Precip: --
Heat Index: NA
Wind Chill: NA
Current conditions at:

Philadelphia, Northeast Philadelphia Airport, PA (KPNE)

Lat: 40.07 Lon: -75.013

Local Radar Image active severe weather and emergency alerts image image weather storm and storm spotter reports image weather observation monitoring service image
Local
Radar
Active
Alerts
Storm Reports Weather
Monitoring

Weather Alert Notification Services


ialert severe weather and emergency alerts by text message and email ialert daily weather forecast by email and text message service ialert real-time weather-observation monitoring and alert notification service ialert storm report monitoring alert notification

Observation History for PHILADELPHIA, PENNSYLVANIA


Time Wind
(mph)
Vis
(mi)
Weather Precip (in) Temperature (F) Relative
Humidity
Wind
Chill
(°F)
Heat
Index
(°F)
Pressure
Air Dwpt altimeter
(in)
sea level
(mb)
1:54 am EDT N 0.0 10.00 Partly Cloudy -- 64.0 60.1 87% NA NA 29.87 1011.3
12:54 am EDT E 4.6 10.00 Mostly Cloudy -- 64.0 60.1 87% NA NA 29.86 1011.2
11:54 pm EDT E 4.6 10.00 Partly Cloudy -- 64.0 59.0 84% NA NA 29.86 1011.0
10:54 pm EDT E 3.5 10.00 A Few Clouds -- 64.0 59.0 84% NA NA 29.86 1011.0
9:54 pm EDT E 6.9 10.00 Fair -- 64.0 59.0 84% NA NA 29.86 1011.1
8:54 pm EDT SE 6.9 10.00 Fair -- 67.0 61.0 81% NA NA 29.85 1010.8
7:54 pm EDT SE 9.2 10.00 Mostly Cloudy -- 70.0 62.1 76% NA NA 29.84 1010.3
6:54 pm EDT SE 12.7 10.00 Fair -- 73.0 64.0 74% NA NA 29.84 1010.3
5:54 pm EDT SE 13.8 10.00 Fair -- 75.0 64.0 69% NA NA 29.83 1010.0
4:54 pm EDT SE 15.0 G 25.3 10.00 Fair -- 77.0 64.0 64% NA NA 29.82 1009.9
3:54 pm EDT SE 9.2 10.00 A Few Clouds -- 79.0 64.0 60% NA NA 29.82 1009.8
2:54 pm EDT 4.6 10.00 Partly Cloudy -- 80.0 63.0 56% NA 81 29.84 1010.5
1:54 pm EDT SE 4.6 10.00 Overcast -- 78.0 63.0 60% NA NA 29.86 1011.2
12:54 pm EDT 5.8 10.00 Partly Cloudy -- 76.0 63.0 64% NA NA 29.89 1012.0
11:54 am EDT SE 3.5 10.00 Partly Cloudy -- 72.0 61.0 68% NA NA 29.91 1012.6
10:54 am EDT SE 4.6 10.00 Overcast -- 68.0 59.0 73% NA NA 29.91 1012.9
9:54 am EDT SE 5.8 10.00 Overcast -- 66.0 59.0 78% NA NA 29.92 1013.0
8:54 am EDT SE 5.8 10.00 Overcast -- 64.0 57.9 81% NA NA 29.93 1013.3
7:54 am EDT SE 3.5 9.00 Overcast -- 62.0 57.9 86% NA NA 29.91 1012.9
6:54 am EDT N 0.0 8.00 Overcast -- 61.0 57.9 90% NA NA 29.90 1012.5
5:54 am EDT N 0.0 10.00 Overcast -- 61.0 57.9 90% NA NA 29.89 1012.0
4:54 am EDT SE 3.5 10.00 Overcast -- 61.0 57.9 90% NA NA 29.87 1011.2
3:54 am EDT N 0.0 8.00 Overcast -- 61.0 57.0 87% NA NA 29.86 1011.0
2:54 am EDT N 0.0 9.00 Overcast -- 62.0 57.0 84% NA NA 29.86 1011.0

Regional Weather Observation:


Pottstown, Pottstown Limerick Airport, PA (KPTW)

Fair
62.0 F

Doylestown, Doylestown Airport, PA (KDYL)

Mostly Cloudy
60.0 F

Quakertown Airport, PA (KUKT)

Fair
61.0 F

Allentown Queen City Municipal Airport, PA (KXLL)

Fair
63.0 F

Reading, Reading Regional Airport, PA (KRDG)

Fair
68.0 F

Philadelphia, Philadelphia International Airport, PA (KPHL)

Light Rain
68.0 F

Advertise Here


Advertise Here